Philip, SD

1:22 PM MST on December 06, 2016 (GMT -0700)
Philip

Weather History for KPHP - July, 2013

Change the Weather History Date:

Thursday, July 18, 2013

  Actual Average Record
Temperature  
Mean Temperature 89 °F 75 °F  
Max Temperature 104 °F 90 °F 109 °F (1977)
Min Temperature 73 °F 61 °F 47 °F (1972)
Degree Days  
Heating Degree Days 0 0  
Month to date heating degree days 0 3  
Since 1 June heating degree days 64 66  
Since 1 July heating degree days 0 3  
Cooling Degree Days 24 10  
Month to date cooling degree days 230 161  
Year to date cooling degree days 378 311  
Since 1 June cooling degree days 357 284  
Growing Degree Days 36 (Base 50)    
Moisture  
Dew Point 59 °F    
Average Humidity 40    
Maximum Humidity 58    
Minimum Humidity 21    
Precipitation  
Precipitation T in 0.06 in 0.70 in (1987)
Month to date precipitation 0.26 1.35  
Year to date precipitation 7.72 11.20  
Sea Level Pressure  
Sea Level Pressure 29.85 in    
Wind  
Wind Speed 8 mph (NW)    
Max Wind Speed 32 mph    
Max Gust Speed 40 mph    
Visibility 10 miles    
Events Thunderstorm    
T = Trace of Precipitation, MM = Missing Value Source: NWS Daily Summary

Daily Weather History Graph

Daily Weather History Graph

Search for Another Location

Airport or City:

Trip Planner

Search our weather history database for the weather conditions in past years. The results will help you decide how hot, cold, wet, or windy it might be!

Date:

Astronomy

Jul. 18, 2013 Rise Set
Actual Time 5:20 AM MDT 8:24 PM MDT
Civil Twilight 4:45 AM MDT 8:59 PM MDT
Nautical Twilight 4:01 AM MDT 9:43 PM MDT
Astronomical Twilight 3:07 AM MDT 10:36 PM MDT
Moon 4:22 PM MDT (7/18) 1:14 AM MDT (7/18)
Length of Visible Light 16h 13m
Length of Day
15h 04m
Waxing Gibbous, 78% of the Moon is Illuminated
Jul 18
Waxing Gibbous
Jul 22
Full
Jul 29
Last Quarter
Aug 6
New
Aug 14
First Quarter

Hourly Weather History & Observations

Time (MDT) Temp. Heat Index Dew Point Humidity Pressure Visibility Wind Dir Wind Speed Gust Speed Precip Events Conditions
12:55 AM 82.0 °F 82.0 °F 57.9 °F 44% 29.91 in 10.0 mi South 15.0 mph 20.7 mph N/A   Clear
1:55 AM 80.1 °F 80.6 °F 57.9 °F 47% 29.90 in 10.0 mi SSW 9.2 mph - N/A   Clear
2:55 AM 79.0 °F - 57.9 °F 48% 29.89 in 10.0 mi SW 8.1 mph - N/A   Clear
3:55 AM 75.9 °F - 57.9 °F 54% 29.88 in 10.0 mi SW 6.9 mph - N/A   Clear
4:55 AM 73.9 °F - 57.9 °F 57% 29.87 in 10.0 mi SSW 3.5 mph - N/A   Clear
5:55 AM 73.9 °F - 57.9 °F 57% 29.87 in 10.0 mi SSE 5.8 mph - N/A   Clear
6:55 AM 79.0 °F - 59.0 °F 50% 29.87 in 10.0 mi SSW 10.4 mph - N/A   Clear
7:55 AM 82.0 °F 82.1 °F 59.0 °F 45% 29.86 in 10.0 mi SW 13.8 mph - N/A   Clear
8:55 AM 84.9 °F 84.4 °F 59.0 °F 41% 29.85 in 10.0 mi WSW 11.5 mph - N/A   Clear
9:55 AM 90.0 °F 89.1 °F 59.0 °F 35% 29.85 in 10.0 mi WSW 11.5 mph - N/A   Clear
10:55 AM 93.0 °F 91.7 °F 57.0 °F 30% 29.83 in 10.0 mi WNW 6.9 mph - N/A   Clear
11:55 AM 99.0 °F 97.7 °F 55.9 °F 24% 29.82 in 10.0 mi WNW 10.4 mph - N/A   Clear
12:55 PM 98.1 °F 96.1 °F 54.0 °F 23% 29.80 in 10.0 mi Variable 4.6 mph - N/A   Clear
1:55 PM 100.9 °F 98.7 °F 53.1 °F 20% 29.78 in 10.0 mi North 9.2 mph 16.1 mph N/A   Scattered Clouds
2:55 PM 100.9 °F 99.1 °F 54.0 °F 21% 29.77 in 10.0 mi North 10.4 mph 18.4 mph N/A   Scattered Clouds
3:55 PM 98.1 °F 97.2 °F 57.9 °F 26% 29.78 in 10.0 mi North 9.2 mph - N/A   Mostly Cloudy
4:50 PM 96.8 °F 96.2 °F 59.0 °F 28% 29.87 in 10.0 mi North 11.5 mph - N/A Thunderstorm Clear
4:55 PM 96.1 °F 96.0 °F 60.1 °F 30% 29.79 in 10.0 mi North 10.4 mph - N/A Thunderstorm Clear
5:26 PM 87.8 °F 86.1 °F 55.4 °F 33% 29.89 in - NNE 20.7 mph 31.1 mph 0.00 in Thunderstorm Thunderstorm
5:42 PM 89.6 °F 88.1 °F 57.2 °F 33% 29.89 in 10.0 mi NE 11.5 mph - 0.00 in Thunderstorm Thunderstorm
5:55 PM 91.0 °F 90.5 °F 60.1 °F 35% 29.81 in 10.0 mi North 10.4 mph - 0.00 in Thunderstorm Partly Cloudy
6:08 PM 91.4 °F 93.2 °F 64.4 °F 41% 29.88 in 10.0 mi NNE 10.4 mph - N/A   Scattered Clouds
6:55 PM 90.0 °F 90.3 °F 62.1 °F 39% 29.80 in 10.0 mi ENE 10.4 mph - N/A   Clear
7:55 PM 87.1 °F 87.8 °F 63.0 °F 44% 29.80 in 10.0 mi Calm Calm - N/A   Clear
8:55 PM 81.0 °F 82.5 °F 64.0 °F 56% 29.83 in 10.0 mi Calm Calm - N/A   Clear
9:55 PM 80.1 °F 81.2 °F 62.1 °F 54% 29.86 in 10.0 mi North 11.5 mph - N/A   Clear
10:55 PM 79.0 °F - 62.1 °F 56% 29.88 in 10.0 mi North 9.2 mph - N/A   Clear
11:55 PM 77.0 °F - 61.0 °F 58% 29.89 in 10.0 mi North 9.2 mph - N/A   Clear